Tracking 30970 objects as of 3-Jul-2025
HD Live streaming from Space Station
objects crossing your sky now

STARLINK-5783

Track STARLINK-5783 now!
10-day predictions
STARLINK-5783 is classified as:


NORAD ID: 56022
Int'l Code: 2023-042AN
Perigee: 565.3 km
Apogee: 567.2 km
Inclination: 43.0 °
Period: 95.8 minutes
Semi major axis: 6937 km
RCS: Unknown
Launch date: March 24, 2022
Source: United States (US)
Launch site: AIR FORCE EASTERN TEST RANGE (AFETR)
Your satellite tracking list
METEOR 2-17 DEB
Track 1 satellite(s)




NASA's NSSDC Master Catalog

Two Line Element Set (TLE):
1 56022U 23042AN  25183.69270168 -.00000545  00000-0 -25239-4 0  9995
2 56022  43.0050 321.5695 0001340 271.3376  88.7313 15.02533035125451
Source of the keplerian elements: AFSPC